Simultaneous Nadir Overpasses (SNOs) Predictions

Prediction of SNOs between METOP-B and NOAA-19 Satellite Orbit:

Table of predicted SNOs for the next 14.0 days since TLE Epoch: 3/12/2022
Index Date (METOP-B) Time (METOP-B) Lat,Lon (METOP-B) SZA (METOP-B ) Date (NOAA-19) Time (NOAA-19) Lat,Lon (NOAA-19) SZA (NOAA-19 ) Distance(km) Time Diff (sec)
1 03/17/2022 00:53:12 -80.88, 20.34 96.39 03/17/2022 00:52:10 -80.86, 14.96 96.85 94.88 62
2 03/17/2022 01:43:57 80.79,-173.99 83.39 03/17/2022 01:43:00 80.80,-174.12 83.36 2.37 57
3 03/17/2022 02:34:38 -80.80, -6.57 96.62 03/17/2022 02:33:59 -80.79, -6.47 96.63 1.92 39
4 03/17/2022 03:25:18 80.80, 160.86 83.38 03/17/2022 03:24:59 80.79, 160.77 83.36 2.22 19
5 03/17/2022 04:16:00 -80.79, -32.06 96.67 03/17/2022 04:15:59 -80.79, -31.94 96.66 2.12 1
6 03/17/2022 05:06:40 80.79, 135.36 83.34 03/17/2022 05:06:59 80.79, 135.29 83.33 1.39 19
7 03/17/2022 05:57:22 -80.78, -57.56 96.72 03/17/2022 05:57:59 -80.79, -57.42 96.69 2.75 37
8 03/17/2022 06:48:02 80.78, 109.87 83.29 03/17/2022 06:48:59 80.79, 109.81 83.31 1.04 57



Historial Predications of SNOs between METOP-B and NOAA-19
